Le nostre stazioni meteo in Italia

Pubblicità
Il mio iltempo24.it
Trieste, Italia (16110): Temperatura & dewpoint: 30.05.2020 22:00:00 - 05.06.2020 22:00:00 (CEST)Trieste, Italia (16110): velocità del vento: 30.05.2020 22:00:00 - 05.06.2020 22:00:00 (CEST)Trieste, Italia (16110): direzione del vento: 30.05.2020 22:00:00 - 05.06.2020 22:00:00 (CEST)Trieste, Italia (16110): reduced air pressure: 30.05.2020 22:00:00 - 05.06.2020 22:00:00 (CEST)Trieste, Italia (16110): visibility: 30.05.2020 22:00:00 - 05.06.2020 22:00:00 (CEST)Trieste, Italia (16110): ore di luce: 30.05.2020 22:00:00 - 05.06.2020 22:00:00 (CEST)
Data & Tempo tt [°C] td [°C] ff [km/h] ff [kn] dd ppp [hPa] vv [km] sd [min]
05.06.2020 22:00:00 - - - - - - - -
05.06.2020 21:00:00 19,8 17,4 0 0 N 1001,1 20 12
05.06.2020 20:00:00 21,0 18,4 0 0 N 1001,1 20 60
05.06.2020 19:00:00 21,0 17,8 0 0 N 1000,1 20 60
05.06.2020 18:00:00 21,6 17,2 0 0 N 999,4 20 60
05.06.2020 17:00:00 21,8 17,6 0 0 N 999,3 20 60
05.06.2020 16:00:00 21,2 17,2 0 0 N 999,0 20 60
05.06.2020 15:00:00 20,2 17,4 0 0 N 999,0 20 48
05.06.2020 14:00:00 20,2 18,0 4 2 ONO 998,4 10 24
05.06.2020 13:00:00 22,2 18,2 8 4 O 998,0 10 24
05.06.2020 12:00:00 19,8 17,2 9 5 S 997,6 10 0
05.06.2020 11:00:00 19,2 16,8 5 3 S 996,6 10 0
05.06.2020 10:00:00 18,8 16,8 5 3 ESE 996,6 10 0
05.06.2020 09:00:00 18,0 16,0 5 3 E 996,5 10 0
05.06.2020 08:00:00 17,0 16,0 8 4 E 996,5 10 0
05.06.2020 07:00:00 16,4 15,3 8 4 E 996,3 10 -
05.06.2020 06:00:00 16,8 15,7 13 7 E 995,8 8 -
05.06.2020 05:00:00 17,0 16,2 8 4 E 995,7 10 -
05.06.2020 04:00:00 17,0 16,0 11 6 E 995,5 10 -
05.06.2020 03:00:00 16,2 15,4 11 6 ENE 996,5 10 -
05.06.2020 02:00:00 15,0 14,2 4 2 NNE 998,1 4,0 -
05.06.2020 01:00:00 17,0 16,2 4 2 SO 998,0 5 -
05.06.2020 00:00:00 17,0 15,7 8 4 E 998,2 10 -
04.06.2020 23:00:00 16,2 15,2 5 3 ENE 999,3 10 -
04.06.2020 22:00:00 16,0 15,4 5 3 ENE 1000,3 10 -
04.06.2020 21:00:00 16,0 15,4 4 2 NE 1001,4 8 -
04.06.2020 20:00:00 16,0 14,7 5 3 ENE 1001,2 6 0
04.06.2020 19:00:00 16,0 15,2 4 2 E 1001,9 6 0
04.06.2020 18:00:00 16,0 15,2 4 2 O 1002,6 6 0
04.06.2020 17:00:00 17,0 16,4 5 3 E 1003,4 8 0
04.06.2020 16:00:00 17,6 16,8 2 1 ENE 1003,7 5 0
04.06.2020 15:00:00 18,0 16,7 0 0 N 1004,0 10 0
04.06.2020 14:00:00 17,2 16,4 2 1 O 1004,4 8 0
04.06.2020 13:00:00 17,0 17,0 11 6 O 1004,8 2,0 0
04.06.2020 12:00:00 19,8 16,8 13 7 SE 1004,2 15 0
04.06.2020 11:00:00 21,0 15,8 11 6 OSO 1003,9 20 0
04.06.2020 10:00:00 21,0 16,8 11 6 SO 1003,6 20 30
04.06.2020 09:00:00 20,4 16,4 8 4 SE 1003,8 20 24
04.06.2020 08:00:00 19,6 15,9 11 6 ESE 1003,6 20 48
04.06.2020 07:00:00 18,8 15,5 5 3 E 1003,5 20 0
04.06.2020 06:00:00 18,0 15,2 0 0 N 1003,4 20 -
04.06.2020 05:00:00 18,2 14,7 0 0 N 1003,4 20 -
04.06.2020 04:00:00 18,2 14,3 5 3 E 1003,8 20 -
04.06.2020 03:00:00 18,0 14,1 8 4 ENE 1004,4 20 -
04.06.2020 02:00:00 17,2 14,3 9 5 E 1004,6 20 -
04.06.2020 01:00:00 17,0 16,4 11 6 NE 1005,5 18 -
04.06.2020 00:00:00 17,4 17,1 8 4 NE 1006,0 15 -
03.06.2020 23:00:00 20,8 16,2 2 1 ONO 1005,8 6 -
03.06.2020 22:00:00 20,0 16,0 2 1 ENE 1005,6 18 -
03.06.2020 21:00:00 20,4 17,8 2 1 ONO 1005,2 20 0
03.06.2020 20:00:00 21,8 19,5 2 1 ONO 1005,1 20 54
03.06.2020 19:00:00 22,4 18,2 0 0 N 1005,2 20 60
03.06.2020 18:00:00 22,8 17,9 2 1 ONO 1005,4 20 60
03.06.2020 17:00:00 22,6 19,4 0 0 N 1006,3 18 54
03.06.2020 16:00:00 23,0 17,5 5 3 O 1006,9 20 60
03.06.2020 15:00:00 23,0 13,5 2 1 ONO 1007,3 20 60
03.06.2020 14:00:00 23,2 14,0 2 1 ONO 1007,7 20 60
03.06.2020 13:00:00 22,2 14,8 2 1 ONO 1008,5 20 60
03.06.2020 12:00:00 22,4 16,4 0 0 N 1008,7 20 60
03.06.2020 11:00:00 21,8 16,5 0 0 N 1009,1 20 60
03.06.2020 10:00:00 20,6 14,7 2 1 O 1009,4 20 60
03.06.2020 09:00:00 19,0 15,1 0 0 N 1009,7 20 60
03.06.2020 08:00:00 19,0 14,5 0 0 N 1009,8 20 60
03.06.2020 07:00:00 16,0 13,5 0 0 N 1009,8 20 24
03.06.2020 06:00:00 16,0 13,3 4 2 NE 1010,1 20 -
03.06.2020 05:00:00 16,2 13,3 2 1 NE 1010,5 20 -
03.06.2020 04:00:00 16,2 12,7 2 1 NE 1010,3 20 -
03.06.2020 03:00:00 16,2 12,7 2 1 NE 1010,3 20 -
03.06.2020 02:00:00 16,6 13,1 4 2 NE 1011,4 20 -
03.06.2020 01:00:00 17,2 14,5 2 1 NE 1011,5 20 -
03.06.2020 00:00:00 18,2 13,1 2 1 NE 1011,6 20 -
02.06.2020 23:00:00 18,6 13,5 9 5 NE 1011,6 20 -
02.06.2020 22:00:00 20,0 13,2 2 1 O 1011,3 20 -
02.06.2020 21:00:00 20,0 13,5 5 3 NE 1011,1 20 -
02.06.2020 20:00:00 22,2 13,3 0 0 N 1011,0 20 24
02.06.2020 19:00:00 22,8 11,2 2 1 E 1011,4 20 30
02.06.2020 18:00:00 23,0 12,0 0 0 N 1011,2 20 60
02.06.2020 17:00:00 21,8 11,8 0 0 N 1011,7 20 6
02.06.2020 16:00:00 22,4 16,2 2 1 ONO 1012,6 20 0
02.06.2020 15:00:00 23,6 15,9 2 1 O 1013,1 20 60
02.06.2020 14:00:00 24,0 18,2 2 1 O 1013,6 20 60
02.06.2020 13:00:00 22,8 17,5 2 1 NNE 1015,0 20 60
02.06.2020 12:00:00 21,6 15,7 0 0 N 1014,3 20 60
02.06.2020 11:00:00 21,2 15,7 0 0 N 1015,0 20 60
02.06.2020 10:00:00 20,8 15,6 0 0 N 1014,9 20 60
02.06.2020 09:00:00 20,0 15,7 0 0 N 1015,0 20 60
02.06.2020 08:00:00 17,6 15,0 0 0 N 1015,1 20 48
02.06.2020 07:00:00 16,6 13,1 0 0 N 1015,5 20 6
02.06.2020 06:00:00 15,2 12,9 0 0 N 1015,5 20 -
02.06.2020 05:00:00 15,4 12,9 0 0 N 1015,7 20 -
02.06.2020 04:00:00 16,2 12,4 4 2 NE 1016,1 20 -
02.06.2020 03:00:00 16,2 12,4 4 2 NE 1016,4 20 -
02.06.2020 02:00:00 17,4 14,5 0 0 N 1016,7 20 -
02.06.2020 01:00:00 17,8 15,2 4 2 NE 1016,8 20 -
02.06.2020 00:00:00 18,4 16,0 0 0 N 1016,8 20 -
01.06.2020 23:00:00 18,8 16,0 4 2 NE 1016,7 20 -
01.06.2020 22:00:00 19,2 17,2 4 2 NE 1016,7 20 -
01.06.2020 21:00:00 20,0 18,0 4 2 ENE 1016,4 20 -
01.06.2020 20:00:00 21,2 14,6 0 0 N 1016,0 20 30
01.06.2020 19:00:00 21,2 16,8 4 2 E 1015,7 20 12
01.06.2020 18:00:00 22,8 16,1 4 2 O 1015,6 20 36
01.06.2020 17:00:00 21,4 17,0 2 1 ONO 1015,8 20 54
01.06.2020 16:00:00 21,6 18,2 9 5 O 1016,3 20 60
01.06.2020 15:00:00 21,6 17,0 4 2 O 1016,3 20 60
01.06.2020 14:00:00 21,0 16,0 5 3 O 1017,0 20 54
01.06.2020 13:00:00 21,2 14,8 5 3 O 1017,0 20 60
01.06.2020 12:00:00 21,0 14,2 5 3 O 1016,7 20 60
01.06.2020 11:00:00 20,8 13,7 4 2 O 1017,3 20 60
01.06.2020 10:00:00 19,8 13,5 0 0 N 1017,4 20 60
01.06.2020 09:00:00 19,2 12,7 0 0 N 1017,5 20 60
01.06.2020 08:00:00 18,0 11,3 0 0 N 1017,3 20 54
01.06.2020 07:00:00 16,0 9,9 0 0 N 1017,4 20 -
01.06.2020 06:00:00 16,8 9,2 0 0 N 1017,0 20 -
01.06.2020 05:00:00 16,8 8,5 0 0 N 1016,9 20 -
01.06.2020 04:00:00 16,8 8,5 8 4 ENE 1016,9 20 -
01.06.2020 03:00:00 17,0 8,4 0 0 N 1016,9 20 -
01.06.2020 02:00:00 18,0 8,3 13 7 NE 1016,9 20 -
01.06.2020 01:00:00 17,4 8,3 16 9 NE 1016,8 20 -
01.06.2020 00:00:00 17,4 9,1 9 5 SSO 1016,4 20 -
31.05.2020 23:00:00 17,6 9,7 15 8 NE 1016,0 20 -
31.05.2020 22:00:00 17,8 9,9 15 8 NE 1015,8 20 -
31.05.2020 21:00:00 17,6 11,4 5 3 OSO 1015,6 20 -
31.05.2020 20:00:00 18,6 11,7 5 3 ENE 1015,5 20 0
31.05.2020 19:00:00 20,0 12,0 0 0 N 1015,4 20 0
31.05.2020 18:00:00 20,8 11,7 5 3 OSO 1015,4 20 0
31.05.2020 17:00:00 20,8 11,7 11 6 O 1015,5 20 12
31.05.2020 16:00:00 22,4 12,4 13 7 OSO 1015,6 20 42
31.05.2020 15:00:00 22,0 12,5 9 5 OSO 1015,7 20 48
31.05.2020 14:00:00 21,2 11,8 11 6 OSO 1016,0 20 42
31.05.2020 13:00:00 20,4 11,1 11 6 O 1016,4 20 24
31.05.2020 12:00:00 19,8 10,8 4 2 ONO 1016,6 20 30
31.05.2020 11:00:00 20,0 11,2 5 3 ONO 1016,6 20 48
31.05.2020 10:00:00 18,0 9,4 9 5 O 1016,7 20 60
31.05.2020 09:00:00 17,2 8,4 0 0 N 1016,9 20 60
31.05.2020 08:00:00 17,0 6,8 0 0 N 1016,9 20 36
31.05.2020 07:00:00 15,0 5,2 4 2 NE 1016,8 20 12
31.05.2020 06:00:00 14,6 5,1 9 5 ENE 1016,7 20 -
31.05.2020 05:00:00 15,0 5,0 15 8 NE 1016,6 20 -
31.05.2020 04:00:00 16,0 5,3 18 10 NE 1016,7 20 -
31.05.2020 03:00:00 16,0 5,9 22 12 NE 1016,7 20 -
31.05.2020 02:00:00 16,4 6,2 18 10 NE 1017,0 20 -
31.05.2020 01:00:00 17,0 5,9 11 6 NE 1017,1 20 -
31.05.2020 00:00:00 17,4 6,0 11 6 NE 1017,0 20 -
30.05.2020 23:00:00 18,0 6,5 5 3 E 1016,8 20 -
30.05.2020 22:00:00 18,8 6,6 9 5 ENE 1016,5 20 -

tt = Temperatura
td = dewpoint
ff = velocità del vento
dd = direzione del vento
ppp = reduced air pressure
vv = visibility
sd = ore di luce

Stazioni seguenti

WeatherPro
AMSI
MeteoEarth